GW5874 Weather Reports


time (UTC)temp
C
wind
direction
speed
KPH
gust
KPH
rain 1hr
cm
rain 24hr
cm
rain mn
cm
humidity
%
barometer
mb
20260505111850 16 258 0.0 0.0 0.00 2.08 2.08 99 1004.4
20260505111346 16 313 1.6 1.6 0.00 2.08 2.08 99 1004.4
20260505110842 15 329 3.2 4.8 0.00 2.08 2.08 99 1004.5
20260505110340 16 273 1.6 1.6 0.00 2.08 2.08 99 1004.5
20260505101815 16 200 6.4 8.0 0.00 2.08 2.08 99 1004.4
20260505101310 16 204 3.2 4.8 0.00 2.08 2.08 99 1004.4
20260505100806 16 343 0.0 1.6 0.00 2.08 2.08 99 1004.5
20260505100303 16 202 4.8 4.8 0.00 2.08 2.08 99 1004.5
20260505095759 16 164 3.2 6.4 0.00 2.08 2.08 99 1004.5
20260505095257 16 172 3.2 4.8 0.00 2.08 2.08 99 1004.4
20260505094752 16 200 0.0 0.0 0.00 2.08 2.08 99 1004.6
20260505094249 16 205 6.4 6.4 0.00 2.08 2.08 99 1004.9
20260505093744 16 206 4.8 6.4 0.00 2.08 2.08 99 1005.0
20260505093242 16 208 3.2 4.8 0.18 2.08 2.08 99 1005.0
20260505092739 16 161 3.2 4.8 0.30 2.08 2.08 99 1005.0
20260505092238 16 183 4.8 4.8 0.13 2.06 2.06 99 1005.4
20260505091734 16 337 3.2 4.8 0.00 2.03 2.03 99 1005.4
20260505091233 16 270 3.2 4.8 0.00 2.03 2.03 98 1005.3
20260505090730 16 212 3.2 4.8 0.18 2.03 2.03 98 1005.3
20260505090228 16 146 1.6 1.6 0.18 2.03 2.03 98 1005.2
20260505085725 16 132 4.8 6.4 0.13 2.01 2.01 98 1005.2
20260505085223 16 202 3.2 4.8 0.30 2.01 2.01 98 1005.1
20260505084720 16 205 3.2 4.8 0.48 1.98 1.98 98 1004.9
20260505084219 16 52 1.6 6.4 0.30 1.96 1.96 98 1005.0
20260505083716 16 160 6.4 8.0 0.30 1.91 1.91 98 1005.1
20260505083213 16 239 0.0 1.6 0.30 1.91 1.91 98 1005.0
20260505082708 16 304 1.6 1.6 0.00 1.85 1.85 98 1005.4
20260505082206 16 179 6.4 6.4 1.07 1.85 1.85 98 1005.7
20260505081701 16 221 1.6 1.6 1.98 1.85 1.85 98 1005.7
20260505081159 16 258 0.0 0.0 1.37 1.70 1.70 98 1005.6
20260505080656 16 165 3.2 4.8 0.48 1.52 1.52 98 1005.9
20260505080152 16 227 1.6 1.6 0.61 1.47 1.47 98 1006.3
20260505075648 16 279 3.2 4.8 0.61 1.45 1.45 97 1006.4
20260505075145 16 348 3.2 4.8 0.18 1.35 1.35 97 1005.2
20260505074642 16 227 1.6 1.6 0.48 1.35 1.35 97 1005.6
20260505074139 16 127 0.0 1.6 0.30 1.32 1.32 97 1005.1
20260505073637 16 103 1.6 1.6 0.30 1.27 1.27 97 1005.7
20260505073135 16 221 1.6 1.6 0.43 1.27 1.27 97 1005.9
20260505072630 16 167 3.2 4.8 0.48 1.24 1.24 97 1005.8
20260505072127 16 121 3.2 4.8 0.30 1.19 1.19 97 1006.4
20260505071622 16 263 0.0 1.6 0.61 1.17 1.17 96 1007.1
20260505071120 16 284 1.6 1.6 1.27 1.14 1.14 96 1006.5
20260505070617 16 204 0.0 1.6 1.50 1.07 1.07 96 1006.3
20260505070113 16 232 1.6 1.6 1.50 0.97 0.97 96 1007.5
20260505065609 16 291 0.0 1.6 1.37 0.81 0.81 96 1007.6
20260505065106 16 285 1.6 1.6 1.07 0.69 0.69 95 1007.8
20260505064603 16 280 3.2 4.8 1.68 0.61 0.61 95 1007.2
20260505064102 16 284 3.2 6.4 1.98 0.51 0.51 94 1007.3
20260505063558 16 295 3.2 4.8 0.89 0.30 0.30 93 1007.5
20260505063054 16 292 3.2 4.8 0.30 0.18 0.18 93 1007.3
20260505062551 16 340 4.8 4.8 0.48 0.15 0.15 91 1006.5
20260505062048 16 274 0.0 1.6 0.48 0.13 0.13 90 1005.9
20260505061546 16 170 6.4 8.0 0.48 0.10 0.10 89 1005.2
20260505061043 17 107 4.8 6.4 0.13 0.05 0.05 86 1005.6
20260505060541 17 229 6.4 6.4 0.00 0.03 0.03 82 1005.5
20260505060037 17 211 1.6 1.6 0.18 0.03 0.03 81 1005.1
20260505055532 17 196 8.0 11.3 0.18 0.03 0.03 80 1005.0
20260505055030 18 185 4.8 8.0 0.00 0.00 0.00 79 1004.5
20260505054527 18 85 1.6 4.8 0.00 0.00 0.00 79 1004.5
20260505054025 18 292 1.6 4.8 0.00 0.00 0.00 78 1004.6
20260505053522 18 173 8.0 8.0 0.00 0.00 0.00 76 1004.9
20260505053018 18 220 3.2 4.8 0.00 0.00 0.00 75 1005.0
20260505052516 18 84 3.2 4.8 0.00 0.00 0.00 73 1005.0
20260505052013 19 88 3.2 6.4 0.00 0.00 0.00 74 1005.4
20260505051509 19 145 9.7 11.3 0.00 0.00 0.00 70 1005.3
20260505051008 19 212 3.2 6.4 0.00 0.00 0.00 69 1005.6
20260505050506 19 204 11.3 12.9 0.00 0.00 0.00 69 1005.2
20260505041433 20 45 6.4 8.0 0.00 0.00 0.00 68 1005.1
20260505040931 20 157 9.7 12.9 0.00 0.00 0.00 68 1005.3
20260505040428 20 156 4.8 6.4 0.00 0.00 0.00 69 1005.3
20260505035924 19 157 3.2 4.8 0.00 0.00 0.00 69 1005.5
20260505035421 19 195 4.8 8.0 0.00 0.00 0.00 71 1005.5
20260505034918 19 152 6.4 8.0 0.00 0.00 0.00 70 1005.6
20260505034414 19 185 1.6 1.6 0.00 0.00 0.00 71 1005.9
20260505033912 19 196 3.2 4.8 0.00 0.00 0.00 71 1005.8
20260505033408 19 194 3.2 4.8 0.00 0.00 0.00 71 1005.9
20260505032907 19 225 0.0 1.6 0.00 0.00 0.00 71 1006.1
20260505032402 19 200 3.2 6.4 0.00 0.00 0.00 72 1006.1
20260505031859 19 215 0.0 1.6 0.00 0.00 0.00 71 1006.0
20260505031356 20 233 0.0 0.0 0.00 0.00 0.00 70 1005.9
20260505030854 19 191 3.2 4.8 0.00 0.00 0.00 70 1005.9
20260505030349 19 203 1.6 1.6 0.00 0.00 0.00 71 1006.0
20260505025845 19 196 3.2 4.8 0.00 0.00 0.00 70 1005.9
20260505025343 19 196 1.6 1.6 0.00 0.00 0.00 70 1006.1
20260505024841 19 190 3.2 4.8 0.00 0.00 0.00 70 1005.8
20260505024339 18 221 1.6 1.6 0.00 0.00 0.00 71 1005.9
20260505023835 18 176 1.6 1.6 0.00 0.00 0.00 73 1005.8
20260505023332 19 230 0.0 0.0 0.00 0.00 0.00 73 1005.5
20260505022830 20 198 0.0 1.6 0.00 0.00 0.00 69 1005.7
20260505022326 20 219 0.0 0.0 0.00 0.00 0.00 70 1005.6
20260505021824 20 219 3.2 4.8 0.00 0.00 0.00 69 1005.6
20260505021320 20 102 0.0 1.6 0.00 0.00 0.00 69 1005.7
20260505020816 20 210 1.6 1.6 0.00 0.00 0.00 70 1005.5
20260505020312 20 132 3.2 4.8 0.00 0.00 0.00 70 1005.7
20260505015809 20 198 3.2 4.8 0.00 0.00 0.00 68 1005.3
20260505015306 20 218 1.6 1.6 0.00 0.00 0.00 68 1005.5
20260505014803 20 182 3.2 4.8 0.00 0.00 0.00 67 1005.4
20260505014300 20 144 4.8 4.8 0.00 0.00 0.00 67 1005.4
20260505013757 20 195 1.6 1.6 0.00 0.00 0.00 67 1005.3
20260505013254 20 200 3.2 4.8 0.00 0.00 0.00 66 1005.2
20260505012752 20 234 1.6 1.6 0.00 0.00 0.00 65 1005.4
20260505012249 21 217 3.2 4.8 0.00 0.00 0.00 65 1005.5
20260505011745 21 172 3.2 4.8 0.00 0.00 0.00 64 1005.3
20260505011242 21 107 3.2 4.8 0.00 0.00 0.00 63 1005.2
20260505010738 21 145 1.6 1.6 0.00 0.00 0.00 63 1005.1
20260505010234 21 162 3.2 4.8 0.00 0.00 0.00 62 1005.2
20260505005731 21 212 1.6 4.8 0.00 0.00 0.00 61 1004.9
20260505005228 22 189 4.8 4.8 0.00 0.00 0.00 61 1005.0
20260505004725 22 166 4.8 6.4 0.00 0.00 0.00 59 1005.1
20260505004221 22 239 1.6 1.6 0.00 0.00 0.00 59 1005.0
20260505003719 22 206 4.8 6.4 0.00 0.00 0.00 58 1005.0
20260505003217 22 242 3.2 4.8 0.00 0.00 0.00 59 1004.9
20260505002712 22 178 3.2 6.4 0.00 0.00 0.00 59 1005.0
20260505002210 22 191 8.0 11.3 0.00 0.00 0.00 58 1004.8
20260505001707 22 222 6.4 8.0 0.00 0.00 0.00 57 1004.9
20260505001205 23 186 12.9 16.1 0.00 0.00 0.00 57 1005.1
20260505000702 23 256 4.8 6.4 0.00 0.00 0.00 57 1005.2
20260505000200 23 195 11.3 16.1 0.00 0.00 0.00 56 1005.1
20260504235656 23 201 6.4 6.4 0.00 0.00 0.00 56 1004.9
20260504235152 23 180 9.7 16.1 0.00 0.00 0.00 55 1005.0
20260504234650 23 218 9.7 12.9 0.00 0.00 0.00 55 1004.9
20260504234147 23 183 12.9 17.7 0.00 0.00 0.00 54 1004.9
20260504233642 24 230 16.1 17.7 0.00 0.00 0.00 53 1004.9
20260504233138 24 188 3.2 4.8 0.00 0.00 0.00 55 1004.9
20260504232637 24 213 11.3 12.9 0.00 0.00 0.00 52 1004.8
20260504232133 25 244 20.9 37.0 0.00 0.00 0.00 51 1004.9
20260504231630 25 247 9.7 16.1 0.00 0.00 0.00 54 1004.8
20260504231126 25 191 4.8 6.4 0.00 0.00 0.00 52 1004.7
20260504230622 25 206 16.1 22.5 0.00 0.00 0.00 51 1004.7
20260504230121 25 216 6.4 6.4 0.00 0.00 0.00 52 1004.7
20260504225619 25 253 8.0 8.0 0.00 0.00 0.00 51 1004.8
20260504225115 25 180 14.5 22.5 0.00 0.00 0.00 51 1004.6
20260504224612 25 187 4.8 8.0 0.00 0.00 0.00 52 1004.7
20260504224109 25 220 9.7 11.3 0.00 0.00 0.00 51 1004.6
20260504223606 25 158 14.5 17.7 0.00 0.00 0.00 52 1004.6
20260504223101 25 213 4.8 6.4 0.00 0.00 0.00 52 1004.6
20260504222558 25 217 8.0 8.0 0.00 0.00 0.00 51 1004.6
20260504222056 25 213 8.0 11.3 0.00 0.00 0.00 52 1004.6
20260504221553 25 162 11.3 12.9 0.00 0.00 0.00 51 1004.8
20260504221049 25 224 4.8 6.4 0.00 0.00 0.00 53 1004.7
20260504220546 25 224 6.4 12.9 0.00 0.00 0.00 50 1004.9
20260504220043 25 201 17.7 24.1 0.00 0.00 0.00 50 1004.8
20260504215539 25 197 29.0 37.0 0.00 0.00 0.00 49 1004.7
20260504215037 25 228 17.7 22.5 0.00 0.00 0.00 48 1004.9
20260504214533 25 237 8.0 11.3 0.00 0.00 0.00 49 1004.8
20260504214029 25 213 6.4 6.4 0.00 0.00 0.00 50 1004.6
20260504213526 25 221 6.4 8.0 0.00 0.00 0.00 51 1004.9
20260504213023 25 213 19.3 29.0 0.00 0.00 0.00 48 1004.9
20260504212519 25 193 9.7 11.3 0.00 0.00 0.00 52 1005.0
20260504212017 25 209 12.9 16.1 0.00 0.00 0.00 50 1005.0
20260504211513 26 194 16.1 19.3 0.00 0.00 0.00 50 1005.1
20260504211011 25 197 8.0 11.3 0.00 0.00 0.00 51 1005.3
20260504210508 25 198 8.0 11.3 0.00 0.00 0.00 51 1005.3
20260504210004 25 192 12.9 24.1 0.00 0.00 0.00 50 1005.2
20260504205502 26 238 16.1 22.5 0.00 0.00 0.00 49 1005.4
20260504205000 26 270 4.8 6.4 0.00 0.00 0.00 51 1005.3
20260504204458 26 210 11.3 16.1 0.00 0.00 0.00 53 1005.6
20260504203957 26 193 8.0 12.9 0.00 0.00 0.00 53 1005.4
20260504203454 26 341 6.4 11.3 0.00 0.00 0.00 49 1005.5
20260504202950 26 243 11.3 12.9 0.00 0.00 0.00 50 1005.6
20260504202446 26 222 12.9 16.1 0.00 0.00 0.00 51 1005.5
20260504201943 26 144 17.7 22.5 0.00 0.00 0.00 49 1005.9
20260504201441 26 267 4.8 8.0 0.00 0.00 0.00 52 1005.9
20260504200938 26 278 6.4 8.0 0.00 0.00 0.00 52 1006.0
20260504200435 26 283 20.9 29.0 0.00 0.00 0.00 49 1006.1
20260504195931 25 213 12.9 19.3 0.00 0.00 0.00 52 1006.2
20260504195427 26 211 17.7 24.1 0.00 0.00 0.00 50 1006.1
20260504194924 25 105 14.5 24.1 0.00 0.00 0.00 52 1006.0
20260504194420 26 163 14.5 17.7 0.00 0.00 0.00 50 1006.1
20260504193916 26 192 6.4 8.0 0.00 0.00 0.00 53 1006.1
20260504193414 25 206 22.5 33.8 0.00 0.00 0.00 50 1006.1
20260504192912 25 178 8.0 16.1 0.00 0.00 0.00 51 1006.1
20260504192409 25 188 14.5 22.5 0.00 0.00 0.00 50 1006.3
20260504191908 25 185 19.3 24.1 0.00 0.00 0.00 50 1006.3
20260504191405 25 204 17.7 22.5 0.00 0.00 0.00 49 1006.1
20260504190900 25 279 27.4 37.0 0.00 0.00 0.00 48 1006.4
20260504190356 25 269 14.5 22.5 0.00 0.00 0.00 51 1006.3
20260504185853 26 233 14.5 24.1 0.00 0.00 0.00 50 1006.3
20260504185350 25 187 9.7 11.3 0.00 0.00 0.00 51 1006.4
20260504184846 25 238 17.7 29.0 0.00 0.00 0.00 49 1006.5
20260504184342 25 199 6.4 12.9 0.00 0.00 0.00 53 1006.4
20260504183838 25 190 24.1 30.6 0.00 0.00 0.00 50 1006.9
20260504183336 25 262 14.5 19.3 0.00 0.00 0.00 49 1006.8
20260504182833 25 208 24.1 30.6 0.00 0.00 0.00 50 1006.9
20260504182331 25 231 17.7 29.0 0.00 0.00 0.00 51 1006.5
20260504181827 25 211 14.5 19.3 0.00 0.00 0.00 51 1006.9
20260504181325 25 156 19.3 22.5 0.00 0.00 0.00 52 1006.9
20260504180824 25 203 16.1 19.3 0.00 0.00 0.00 50 1007.1
20260504180322 25 180 11.3 17.7 0.00 0.00 0.00 52 1007.1
20260504175820 25 213 17.7 22.5 0.00 0.00 0.00 50 1007.0
20260504175316 25 221 12.9 17.7 0.00 0.00 0.00 50 1007.0
20260504174815 24 189 20.9 24.1 0.00 0.00 0.00 49 1007.0
20260504174311 24 145 19.3 25.7 0.00 0.00 0.00 51 1007.2
20260504173808 24 191 11.3 17.7 0.00 0.00 0.00 52 1007.3
20260504173305 24 200 12.9 16.1 0.00 0.00 0.00 54 1007.3
20260504172802 24 251 25.7 33.8 0.00 0.00 0.00 50 1007.5
20260504172259 24 207 9.7 12.9 0.00 0.00 0.00 51 1007.2
20260504171754 24 223 22.5 33.8 0.00 0.00 0.00 51 1007.4
20260504171252 24 147 16.1 22.5 0.00 0.00 0.00 51 1007.7
20260504170749 23 213 14.5 22.5 0.00 0.00 0.00 53 1007.3
20260504170246 23 213 12.9 16.1 0.00 0.00 0.00 54 1007.6
20260504160204 23 233 6.4 8.0 0.00 0.00 0.00 51 1008.0
20260504151132 22 202 20.9 24.1 0.00 0.00 0.00 52 1008.5
20260504150630 22 193 3.2 11.3 0.00 0.00 0.00 54 1008.6
20260504150126 21 205 20.9 24.1 0.00 0.00 0.00 52 1008.5
20260504141055 20 194 16.1 17.7 0.00 0.00 0.00 57 1009.0
20260504140551 20 227 11.3 16.1 0.00 0.00 0.00 57 1008.9
20260504130516 17 190 17.7 19.3 0.00 0.00 0.00 60 1009.4